Find Local Weather

World > North America > United States > Georgia

Uvalda, Georgia Regional Weather

Lat: 32.04N, Lon: 82.51W
Wx Zone: GAZ112
Warning FLW WEATHER ALERT - (More Info. Click Here) Warning
Feedback
Expires:201807162300;;585545
ASUS42 KFFC 162210
RWRGA 
WEATHER ROUNDUP FOR GEORGIA
NATIONAL WEATHER SERVICE PEACHTREE CITY GA
600 PM EDT MON JUL 16 2018

NOTE: "FAIR" INDICATES FEW OR NO CLOUDS BELOW 12,000 FEET WITH NO
SIGNIFICANT WEATHER AND/OR OBSTRUCTIONS TO VISIBILITY. 

* = USE WITH CAUTION. THE STATIONS MARKED WITH AN ASTERISK MAY NOT
REPORT WEATHER SUCH AS PRECIPITATION, FOG, OR THUNDER AND ARE NOT 
QUALITY CONTROLLED BY NWS.

THE REMARK "TC" DENOTES TEMPERATURE READING IN DEGREES CELSIUS.


GAZ099>101-110>166-162300-
SOUTH GEORGIA
  
CITY           SKY/WX    TMP DP  RH WIND       PRES   REMARKS
SAVANNAH       CLOUDY    82  75  79 S5        29.99F                  
VALDOSTA       FAIR      86  75  69 VRB3      30.00S HX  95           
ALMA           PTSUNNY   83  73  72 VRB5      30.01R                  
ST SIMONS      FAIR      89  76  65 SE14G22   29.97F HX 100           
FT STEWART     PTSUNNY   88  73  62 SE8       29.95S HX  96           
ALBANY         LGT RAIN  81  73  76 SW10      30.03R                  
HUNTER AFB     FAIR      80  76  87 S7        29.96F                  
MOODY AFB      FAIR      85  77  75 W5        30.00R HX  96           
BRUNSWICK      FAIR      90  73  58 SE8       29.98S HX  98           

  
CITY           SKY/WX    TMP DP  RH WIND       PRES   REMARKS
BAINBRIDGE*    CLOUDY    77  72  83 W5        30.04F                  
MOULTRIE*      FAIR      79  72  78 CALM      30.02F                  
VIDALIA*       RAIN      77  72  83 CALM      30.00F                  
WAYCROSS*      CLOUDY    74  72  91 E3        30.01                   
DOUGLAS*       FAIR      82  73  74 S3        30.03R                  
$$
  

SKY/WX - Weather  TMP - Temperature  DP - Dewpoint  RH - Relative Humidity
WIND - Wind Direction/Speed PRES - Barometric Pressure